Stansted, United Kingdom

1:30 PM GMT on February 13, 2016 (GMT +0000)
Stansted

Weather History for EGSS - December, 2012

Change the Weather History Date:

Tuesday, December 4, 2012

  Actual Average Record
Temperature  
Mean Temperature 36 °F -  
Max Temperature 42 °F 42 °F 55 °F (2000)
Min Temperature 30 °F 34 °F 28 °F (2013)
Degree Days  
Heating Degree Days 29    
Moisture  
Dew Point 33 °F    
Average Humidity 86    
Maximum Humidity 93    
Minimum Humidity 76    
Precipitation  
Precipitation 0.00 in - - ()
Sea Level Pressure  
Sea Level Pressure 29.58 in    
Wind  
Wind Speed 8 mph ()    
Max Wind Speed 16 mph    
Max Gust Speed -    
Visibility 6.2 miles    
Events Rain    
Averages and records for this station are not official NWS values.
T = Trace of Precipitation, MM = Missing Value Source: Averaged Metar Reports

Daily Weather History Graph

Daily Weather History Graph

Search for Another Location

Airport or City:

Trip Planner

Search our weather history database for the weather conditions in past years. The results will help you decide how hot, cold, wet, or windy it might be!

Date:

Astronomy

Dec. 04, 2012 Rise Set
Actual Time 7:48 AM GMT 3:49 PM GMT
Civil Twilight 7:08 AM GMT 4:29 PM GMT
Nautical Twilight 6:25 AM GMT 5:12 PM GMT
Astronomical Twilight 5:45 AM GMT 5:53 PM GMT
Moon 9:49 PM GMT (12/4) 11:11 AM GMT (12/4)
Length of Visible Light 9h 21m
Length of Day
8h 01m
Waning Gibbous, 71% of the Moon is Illuminated
Dec 4
Waning Gibbous
Dec 6
Last Quarter
Dec 13
New
Dec 20
First Quarter
Dec 28
Full

Hourly Weather History & Observations

Time (GMT) Temp. Windchill Dew Point Humidity Pressure Visibility Wind Dir Wind Speed Gust Speed Precip Events Conditions
12:20 AM 33.8 °F 27.7 °F 32.0 °F 93% 29.59 in - WSW 6.9 mph - N/A   Clear
12:50 AM 33.8 °F 27.0 °F 32.0 °F 93% 29.59 in - West 8.1 mph - N/A   Clear
1:20 AM 33.8 °F 27.0 °F 32.0 °F 93% 29.59 in - West 8.1 mph - N/A   Clear
1:50 AM 33.8 °F 27.7 °F 32.0 °F 93% 29.59 in - West 6.9 mph - N/A   Clear
2:20 AM 35.6 °F 29.2 °F 32.0 °F 87% 29.59 in - West 8.1 mph - N/A   Clear
2:50 AM 35.6 °F 29.9 °F 32.0 °F 87% 29.59 in - West 6.9 mph - N/A   Clear
3:20 AM 35.6 °F 28.6 °F 33.8 °F 93% 29.56 in - West 9.2 mph - N/A   Clear
3:50 AM 35.6 °F 28.6 °F 32.0 °F 87% 29.56 in - West 9.2 mph - N/A   Clear
4:20 AM 35.6 °F 29.2 °F 32.0 °F 87% 29.56 in - West 8.1 mph - N/A   Clear
4:50 AM 35.6 °F 28.6 °F 32.0 °F 87% 29.56 in - West 9.2 mph - N/A   Clear
5:20 AM 35.6 °F 29.9 °F 32.0 °F 87% 29.56 in - West 6.9 mph - N/A   Clear
5:50 AM 35.6 °F 28.0 °F 32.0 °F 87% 29.56 in - West 10.4 mph - N/A   Clear
6:20 AM 35.6 °F 28.6 °F 32.0 °F 87% 29.56 in 6.2 mi West 9.2 mph - N/A   Scattered Clouds
6:50 AM 35.6 °F 29.2 °F 33.8 °F 93% 29.56 in 6.2 mi West 8.1 mph - N/A   Partly Cloudy
7:20 AM 37.4 °F 30.3 °F 33.8 °F 87% 29.56 in - West 10.4 mph - N/A   Clear
7:50 AM 37.4 °F 29.3 °F 33.8 °F 87% 29.56 in 6.2 mi West 12.7 mph - N/A Rain Light Rain Showers
8:20 AM 37.4 °F 29.8 °F 33.8 °F 87% 29.59 in 6.2 mi West 11.5 mph - N/A   Scattered Clouds
8:50 AM 39.2 °F 31.6 °F 33.8 °F 81% 29.59 in 6.2 mi West 12.7 mph - N/A   Partly Cloudy
9:20 AM 39.2 °F 31.6 °F 35.6 °F 87% 29.59 in 6.2 mi West 12.7 mph - N/A   Partly Cloudy
9:50 AM 39.2 °F 31.6 °F 35.6 °F 87% 29.59 in 6.2 mi West 12.7 mph - N/A   Partly Cloudy
10:20 AM 41.0 °F 34.3 °F 35.6 °F 81% 29.59 in 6.2 mi West 11.5 mph - N/A   Partly Cloudy
10:50 AM 41.0 °F 33.9 °F 35.6 °F 81% 29.59 in 6.2 mi West 12.7 mph - N/A   Partly Cloudy
11:20 AM 41.0 °F 33.5 °F 35.6 °F 81% 29.59 in - West 13.8 mph - N/A   Clear
11:50 AM 42.8 °F 35.8 °F 35.6 °F 76% 29.59 in 6.2 mi WNW 13.8 mph - N/A   Partly Cloudy
12:20 PM 42.8 °F 35.1 °F 35.6 °F 76% 29.59 in 6.2 mi WNW 16.1 mph - N/A   Scattered Clouds
12:50 PM 42.8 °F 35.8 °F 35.6 °F 76% 29.59 in 6.2 mi WNW 13.8 mph - N/A   Mostly Cloudy
1:20 PM 42.8 °F 36.2 °F 35.6 °F 76% 29.59 in 6.2 mi WNW 12.7 mph - N/A Rain Light Rain Showers
1:50 PM 41.0 °F 34.7 °F 35.6 °F 81% 29.59 in 6.2 mi WNW 10.4 mph - N/A Rain Light Rain Showers
2:20 PM 41.0 °F 35.2 °F 37.4 °F 87% 29.59 in 6.2 mi WNW 9.2 mph - N/A Rain Light Rain Showers
2:50 PM 42.8 °F 38.6 °F 37.4 °F 81% 29.59 in 6.2 mi WNW 6.9 mph - N/A   Mostly Cloudy
3:20 PM 42.8 °F 38.0 °F 37.4 °F 81% 29.59 in 6.2 mi WNW 8.1 mph - N/A   Scattered Clouds
3:50 PM 42.8 °F 38.6 °F 35.6 °F 76% 29.59 in 6.2 mi WNW 6.9 mph - N/A   Scattered Clouds
4:20 PM 41.0 °F 36.4 °F 35.6 °F 81% 29.59 in 6.2 mi WNW 6.9 mph - N/A   Scattered Clouds
4:50 PM 41.0 °F 37.1 °F 35.6 °F 81% 29.59 in 6.2 mi WNW 5.8 mph - N/A   Scattered Clouds
5:20 PM 39.2 °F 34.2 °F 33.8 °F 81% 29.59 in 6.2 mi West 6.9 mph - N/A   Mostly Cloudy
5:50 PM 39.2 °F 33.6 °F 33.8 °F 81% 29.59 in 6.2 mi West 8.1 mph - N/A   Scattered Clouds
6:20 PM 37.4 °F 33.8 °F 32.0 °F 81% 29.59 in - West 4.6 mph - N/A   Clear
6:50 PM 35.6 °F 29.9 °F 32.0 °F 87% 29.59 in - West 6.9 mph - N/A   Clear
7:20 PM 35.6 °F 31.7 °F 32.0 °F 87% 29.59 in - West 4.6 mph - N/A   Clear
7:50 PM 33.8 °F 28.6 °F 32.0 °F 93% 29.59 in - WSW 5.8 mph - N/A   Clear
8:20 PM 33.8 °F 29.6 °F 32.0 °F 93% 29.59 in - West 4.6 mph - N/A   Clear
8:50 PM 33.8 °F 29.6 °F 30.2 °F 87% 29.59 in - WNW 4.6 mph - N/A   Clear
9:20 PM 33.8 °F 30.8 °F 30.2 °F 87% 29.59 in - West 3.5 mph - N/A   Clear
9:50 PM 33.8 °F 30.8 °F 30.2 °F 87% 29.59 in - West 3.5 mph - N/A   Clear
10:20 PM 32.0 °F - 28.4 °F 87% 29.59 in - Variable 2.3 mph - N/A   Clear
10:50 PM 32.0 °F 28.7 °F 30.2 °F 93% 29.59 in - West 3.5 mph - N/A   Clear
11:20 PM 30.2 °F 25.4 °F 28.4 °F 93% 29.59 in - WSW 4.6 mph - N/A   Clear
11:50 PM 30.2 °F 25.4 °F 28.4 °F 93% 29.59 in 5.6 mi SW 4.6 mph - N/A   Unknown